Skip Page Navigation
NASA JPL Caltech
NASA Logo - Jet Propulsion Laboratory + View the NASA Portal
+ Center for Near-Earth Object Studies
JPL Home Earth Solar System Stars & Galaxies Technology
JPL Solar System Dynamics
BODIES ORBITS EPHEMERIDES TOOLS PHYSICAL DATA DISCOVERY FAQ SITE MAP
JPL Small-Body Database Browser
Search: [ help ]  
385102 (2012 VJ67)
Classification: Main-belt Asteroid          SPK-ID: 2385102
Ephemeris | Orbit Diagram | Orbital Elements | Mission Design | Physical Parameters | Discovery Circumstances | Close-Approach Data ]

[ show orbit diagram ]
Orbital Elements at Epoch 2459200.5 (2020-Dec-17.0) TDB
Reference: JPL 15 (heliocentric ecliptic J2000)
 Element Value Uncertainty (1-sigma)   Units 
e .002983018378614696 6.1738e-08  
a 3.002613513266938 3.9767e-08 au
q 2.993656661972985 1.9501e-07 au
i 2.99127408025381 6.5925e-06 deg
node 45.42140147628572 0.00013224 deg
peri 104.1111065022534 0.0011414 deg
M 97.27525811590301 0.0011318 deg
tp 2458686.991696988782
(2019-Jul-22.49169699)
0.0059765 TDB
period 1900.41119051851
5.20
3.7754e-05
1.034e-07
d
yr
n .1894326879341187 3.7633e-09 deg/d
Q 3.011570364560889 3.9886e-08 au
  Orbit Determination Parameters
   # obs. used (total)      127  
   data-arc span      7696 days (21.07 yr)  
   first obs. used      1999-03-21  
   last obs. used      2020-04-15  
   planetary ephem.      DE441  
   SB-pert. ephem.      SB441-N16  
   condition code      0  
   norm. resid. RMS      .59464  
   source      ORB  
   producer      Otto Matic  
   solution date      2021-Apr-14 11:04:07  

Additional Information
 Earth MOID = 1.98905 au 
 Jupiter MOID = 1.94458 au 
 T_jup = 3.250 
[ show covariance matrix ]

Ephemeris | Orbit Diagram | Orbital Elements | Mission Design | Physical Parameters | Discovery Circumstances | Close-Approach Data ]

Physical Parameter Table
Parameter Symbol Value Units Sigma Reference Notes
absolute magnitude H 16.89   n/a E2021B25  

385102 (2012 VJ67)          Discovered 2007-Nov-03 by Spacewatch at Kitt Peak
Reference: Last Updated: 2014-01-21

[ show close-approach data ]
Ephemeris | Orbit Diagram | Orbital Elements | Mission Design | Physical Parameters | Discovery Circumstances | Close-Approach Data ]
ABOUT SSD CREDITS/AWARDS PRIVACY/COPYRIGHT GLOSSARY LINKS
FirstGov 2021-Jun-18 00:57 UT
(server date/time)  
NASA Home Page
Site Manager:   Ryan S. Park
Webmaster  Alan B. Chamberlin